sat.trackr.live / text

‹ back to catalog

STARLINK-31710

NORAD 59378 · 2024-062E

PAYLOAD ACTIVE UNKNOWN

§ Identity

Operator
Country
US
Launch date
2024-04-02
Launch site
AFWTR
Launch vehicle
Mass (kg)
RCS (m²)

Purposes: comms

External: N2YO · Heavens-Above · Gunter

§ Orbital elements

Epoch: 2026-05-24T17:48:20.013984Z

Period
94.11 min
Inclination
53.1610°
Eccentricity
0.0001148
Mean motion
15.30189118 rev/d
Perigee alt
474.5 km
Apogee alt
476.0 km
Semi-major
6,853.4 km
B*
3.3219e-5
RAAN
262.5261°
Arg perigee
72.4661°
Mean anomaly
287.6465°
Rev number
12,127

§ Raw data

STARLINK-317101 59378U 24062E   26144.74189831  .00000625  00000+0  33219-4 0  99982 59378  53.1610 262.5261 0001148  72.4661 287.6465 15.30189118121272

JSON: /api/v1/satellites/59378 · /tle

For live sub-satellite position, see the globe view (requires WebGL).

§ Visibility from observer

Set your observer location to see the next 7 days of passes ≥ 10°. The values pass through the URL so the page stays shareable.

No JS? Fill the form by hand. The geolocation button needs JavaScript.